Home   Weather   Gaspé   Past weeks
Flag for Canada

Past Weather in Gaspé, Quebec, Canada — Yesterday and Last 2 Weeks

Now
46 °F

Overcast.


Feels Like: 46 °F
Forecast: 54 / 43 °F
Wind: No wind

Location: Gaspe

Current Time: Oct 14, 2019 at 2:34:12 am

Latest Report: Oct 14, 2019 at 2:00 am


Visibility: 15 mi

Pressure: 30.03 "Hg

Humidity: 93%

Dew Point: 45 °F

Location of GaspéLocation

Past Weather in Gaspé — Graph

°F

Gaspé Temperature Yesterday

Maximum temperature yesterday: 59 °F (at 1:00 pm)
Minimum temperature yesterday: 45 °F (at 12:00 am)
Average temperature yesterday: 49 °F

High & Low Weather Summary for the Past Weeks

 TemperatureHumidityPressure
High61 °F (Oct 8, 12:00 pm)100% (Sep 29, 1:00 am)30.55 "Hg (Sep 29, 1:00 am)
Low30 °F (Oct 6, 4:00 am)36% (Oct 8, 1:00 pm)29.73 "Hg (Oct 2, 2:00 am)
Average44 °F75%30.13 "Hg
* Reported Sep 29 1:00 am — Oct 14 1:00 am, Gaspé. Weather by CustomWeather, © 2019

Note: Actual official high and low records may vary slightly from our data, if they occured in-between our weather recording intervals... More about our weather records

Advertising

Gaspé Weather History for the Previous 24 Hours

Scroll right to see more
 ConditionsComfort  
Time TempWeatherWind HumidityBarometerVisibility
1:00 am
Mon, Oct 14
46 °FPassing clouds.No wind93%30.02 "Hg15 mi
12:00 am46 °FPassing clouds.No wind93%30.01 "Hg15 mi
11:00 pm
Sun, Oct 13
45 °FPassing clouds.2 mph100%30.01 "Hg15 mi
10:00 pm45 °FPassing clouds.3 mph93%30.01 "Hg15 mi
9:00 pm45 °FPassing clouds.No wind93%30.00 "Hg15 mi
8:00 pm46 °FPassing clouds.No wind93%29.98 "Hg15 mi
7:00 pm50 °FPassing clouds.3 mph88%29.98 "Hg15 mi
6:00 pm50 °FPassing clouds.7 mph88%29.96 "Hg15 mi
5:00 pm54 °FScattered clouds.10 mph72%29.95 "Hg15 mi
4:00 pm57 °FBroken clouds.7 mph72%29.93 "Hg15 mi
3:00 pm59 °FScattered clouds.7 mph68%29.92 "Hg15 mi
2:00 pm59 °FScattered clouds.3 mph63%29.91 "Hg15 mi
1:00 pm59 °FPassing clouds.5 mph63%29.91 "Hg15 mi
12:00 pm57 °FPassing clouds.7 mph67%29.92 "Hg15 mi
11:00 am54 °FScattered clouds.7 mph77%29.93 "Hg15 mi
10:00 am50 °FScattered clouds.8 mph88%29.94 "Hg15 mi
9:00 am48 °FOvercast.6 mph87%29.94 "Hg15 mi
8:00 am46 °FOvercast.5 mph93%29.94 "Hg15 mi
7:00 am45 °FPartly sunny.5 mph93%29.93 "Hg15 mi
6:00 am45 °FPassing clouds.6 mph93%29.91 "Hg7 mi
5:00 am45 °FOvercast.6 mph93%29.91 "Hg7 mi
4:00 am45 °FOvercast.6 mph93%29.91 "Hg7 mi
3:00 am45 °FOvercast.5 mph93%29.91 "Hg7 mi
2:00 am45 °FOvercast.6 mph93%29.92 "Hg7 mi
Weather by CustomWeather, © 2019

See weather overview